Wind_Speed
14 14 16 14 15 15 14 16 17 18 18 18 19 21 22 23 22 21 21 20 19 19 18 18 19 19 19 18 18 18 17 17 17 17 16 15 14 10 10 7 9 9 8
25 23 19 17 15 14 16 17 18 19 20 20 21 23 23 24 24 24 23 23 22 20 20 20 20 21 20 20 20 20 20 20 19 19 18 18 16 12 12 10 10 11 10
27 29 28 22 19 15 16 16 19 21 21 22 23 24 25 25 26 26 25 25 25 24 22 22 23 23 22 22 21 21 21 22 21 21 19 20 18 15 15 13 12 12 13
28 29 28 28 28 27 24 22 22 22 23 24 24 25 26 26 27 28 28 28 27 26 26 25 24 25 23 23 23 23 23 23 23 22 21 21 21 17 19 16 15 15 15
29 31 30 30 31 33 31 29 26 24 24 25 27 27 27 28 29 29 29 30 30 28 27 27 27 27 26 24 24 24 24 24 23 23 23 22 23 20 21 18 18 18 17
28 30 32 30 30 32 34 32 31 27 26 25 28 29 29 29 29 30 31 31 32 31 31 29 29 28 27 26 25 25 25 25 24 24 24 24 24 22 22 22 21 20 19
31 32 30 30 32 31 32 34 32 31 30 29 28 29 30 30 30 31 32 32 33 34 34 33 31 31 29 28 27 27 26 26 26 26 25 25 25 24 25 23 22 21 20
24 29 31 30 32 34 35 35 35 33 34 35 33 31 32 33 33 33 35 35 35 36 36 36 34 32 32 31 30 28 28 27 27 28 28 27 27 25 25 25 24 22 22
20 22 26 30 32 34 35 37 36 36 37 39 38 36 34 35 36 36 37 37 37 38 39 39 39 37 35 34 33 32 31 30 29 29 29 28 28 26 25 25 25 24 25
13 19 24 27 29 32 35 36 38 37 37 41 42 42 41 40 38 38 38 40 40 40 40 41 41 41 39 38 36 34 34 32 30 29 28 28 27 25 26 26 27 27 27
17 19 21 24 26 29 32 35 39 39 39 39 37 39 43 47 45 43 42 42 42 42 42 43 43 43 42 41 39 37 35 36 33 31 30 29 29 27 28 29 29 30 30
18 21 24 27 30 34 36 37 38 40 40 42 44 40 38 38 45 50 48 46 47 48 47 46 46 46 47 44 42 42 38 38 36 35 34 32 32 31 31 31 32 32 32
28 30 32 35 38 40 42 43 44 44 44 44 46 49 46 45 42 49 45 52 51 51 52 50 50 50 49 49 46 44 42 42 39 38 37 37 36 35 34 33 35 35 34
31 33 36 41 45 49 52 55 53 51 51 51 51 52 53 52 47 44 49 50 44 51 54 54 54 53 52 53 51 49 47 45 44 43 42 39 38 39 37 37 37 37 36
38 41 44 47 49 52 57 61 62 63 60 58 58 58 59 55 56 52 61 43 46 53 55 56 59 57 57 55 53 53 52 49 48 47 45 44 43 43 41 41 40 40 38
46 49 51 53 58 58 58 59 59 66 68 67 65 65 65 63 61 62 56 63 55 46 54 61 62 62 60 59 57 56 54 54 52 52 50 46 47 47 46 45 44 40 36
55 59 62 62 60 53 50 49 50 49 59 71 74 72 71 71 69 66 64 60 61 59 45 44 57 62 63 62 60 59 58 56 54 54 53 51 49 50 48 46 46 43 41
63 65 56 47 42 42 42 44 48 50 51 53 57 74 80 77 77 74 71 69 67 64 68 75 58 56 59 64 61 62 61 59 57 56 55 53 51 51 49 48 46 44 43
61 46 38 36 37 40 42 44 47 49 53 56 59 60 62 71 81 82 79 76 75 72 70 72 72 75 62 64 63 62 63 61 59 59 57 56 54 54 51 50 48 45 44
38 33 34 37 38 41 42 43 43 44 48 55 59 61 64 67 69 73 80 85 82 80 76 72 59 71 74 63 66 67 68 63 64 62 59 58 56 55 54 52 50 48 44
30 31 34 38 40 41 43 45 49 49 53 59 61 63 65 66 69 73 75 75 84 86 84 81 73 65 67 65 65 68 64 72 68 64 62 62 59 56 55 53 52 50 47
34 39 40 39 39 42 44 43 45 48 52 50 58 66 68 69 70 70 73 77 79 80 89 86 80 78 63 72 69 68 66 67 67 69 65 63 61 58 57 55 53 53 50
41 38 36 38 42 45 48 48 49 49 51 50 48 52 59 67 74 76 79 80 80 81 81 83 91 88 85 72 74 73 77 70 58 56 66 68 63 60 58 57 56 53 52
39 38 39 42 44 50 52 53 54 52 53 53 50 49 53 59 62 68 74 83 89 86 85 84 81 91 89 72 79 79 70 70 65 65 60 65 65 64 58 59 57 56 58
39 39 40 46 50 53 55 56 56 56 55 55 52 51 55 59 64 69 72 76 83 92 95 89 84 83 93 89 90 68 74 70 63 61 63 57 65 61 58 58 62 59 59
39 43 47 51 55 55 55 55 56 55 57 55 53 55 58 63 69 74 79 82 83 87 91 100 94 86 86 96 105 103 87 77 76 67 55 44 45 46 57 59 56 55 59
Wind_Direction
245 249 252 251 254 263 248 240 240 243 240 235 237 245 248 245 245 245 243 243 237 235 238 239 239 240 243 247 250 254 254 253 254 252 252 251 255 252 259 272 268 274 288
240 246 258 254 250 246 247 248 245 240 242 240 239 239 241 246 249 246 244 248 246 242 240 241 242 241 242 244 245 247 251 253 255 255 256 253 254 255 262 272 276 276 282
246 246 249 256 251 248 246 254 253 248 243 238 239 240 240 239 242 247 249 246 246 246 243 244 243 244 242 243 245 246 247 250 252 255 258 261 263 261 264 268 276 272 275
248 250 249 252 254 259 257 254 261 261 256 252 244 242 240 242 242 241 245 247 246 248 248 247 250 249 245 244 245 244 246 248 252 254 256 260 264 265 265 267 273 272 274
251 248 248 249 253 259 262 261 259 258 257 258 254 248 246 242 242 242 242 244 247 247 247 249 249 252 251 245 245 246 246 248 249 253 256 258 261 263 265 269 268 271 273
255 254 253 248 248 252 258 260 261 256 259 255 257 255 251 249 248 244 241 242 243 246 248 246 249 250 251 251 249 248 249 250 250 252 256 259 262 263 264 266 268 269 270
258 255 253 251 251 253 254 258 258 259 257 257 252 252 254 254 250 249 247 244 242 242 244 247 246 250 251 251 250 251 250 251 252 254 256 259 262 263 263 265 266 268 270
259 261 259 257 255 254 254 253 255 254 255 256 254 249 247 248 250 250 249 247 244 242 242 243 245 247 248 249 249 250 251 252 255 257 259 261 262 262 265 266 265 266 267
264 264 267 269 267 264 258 260 259 256 256 257 258 254 250 246 244 247 249 249 247 243 242 243 244 245 247 247 249 251 251 252 251 256 259 261 263 262 261 261 262 264 265
285 273 268 269 271 270 269 267 264 261 261 258 260 259 255 253 247 247 248 248 246 247 245 244 242 244 243 246 244 247 252 253 255 253 255 258 258 261 263 263 263 264 263
287 284 280 279 279 276 273 270 267 265 266 263 259 258 261 259 251 248 246 247 248 245 245 246 244 243 241 243 244 242 243 250 250 255 253 253 258 257 258 259 260 261 261
282 283 282 281 280 279 276 273 270 268 265 261 261 253 259 258 259 250 249 247 245 247 244 243 244 243 243 242 242 243 240 243 247 249 253 255 255 255 255 257 259 259 259
293 291 287 284 284 281 278 275 273 269 266 263 260 258 261 259 252 243 255 251 247 245 245 243 241 241 241 241 242 244 242 243 244 247 248 252 254 254 255 256 259 260 261
288 289 289 286 282 280 278 276 270 266 265 262 261 260 261 256 260 257 243 249 244 248 245 246 245 243 240 240 239 240 242 243 243 243 246 247 251 254 253 253 255 256 258
290 290 288 292 294 288 281 271 265 264 261 259 259 259 259 256 257 255 251 250 243 248 249 248 246 246 244 240 240 240 241 241 244 245 246 250 250 252 252 253 251 253 254
291 290 295 290 290 292 280 275 268 260 257 258 257 256 258 257 255 256 251 257 253 253 249 250 246 242 243 243 240 239 239 240 242 244 246 246 250 251 251 251 254 256 256
296 296 294 293 294 289 277 274 275 270 261 257 257 257 255 256 256 254 253 250 252 255 244 255 250 248 240 240 242 240 240 239 239 242 245 245 246 250 253 255 254 254 254
295 296 300 290 282 278 276 276 276 275 271 266 261 260 257 256 256 255 253 252 252 246 249 252 254 251 251 242 240 241 241 241 240 240 242 243 244 249 248 250 251 250 254
300 297 290 284 283 284 284 281 278 275 274 270 266 262 259 260 257 255 255 251 251 250 249 250 253 254 252 249 243 241 242 241 241 241 242 243 244 243 247 249 250 250 251
298 295 290 293 294 291 289 286 281 280 278 275 271 267 263 259 258 257 257 254 252 249 248 249 246 253 258 254 247 247 240 238 240 241 242 243 245 246 248 250 250 250 252
299 297 296 299 300 298 292 288 282 280 283 275 267 267 265 263 261 258 257 255 255 251 249 249 248 250 245 251 249 251 242 239 236 238 239 242 243 245 247 249 251 253 252
301 301 301 298 302 306 306 302 292 284 293 286 270 263 261 261 261 260 259 258 255 251 250 249 245 242 238 246 246 246 242 245 247 244 237 239 243 246 248 249 250 252 254
302 299 301 303 306 310 311 311 306 297 299 296 281 271 267 264 262 261 259 257 256 256 249 246 246 243 244 250 250 240 250 244 242 248 248 242 240 245 247 251 252 255 255
302 303 305 306 308 310 308 308 309 305 301 300 289 280 273 267 264 263 262 260 257 254 252 247 243 242 241 240 239 235 240 243 247 245 245 245 246 242 247 248 252 254 253
307 305 309 309 308 307 306 307 307 307 302 299 291 281 278 274 271 268 263 260 258 255 252 247 242 240 236 232 230 228 238 241 243 250 246 248 246 247 248 255 250 252 246
312 312 310 309 307 305 306 305 306 305 303 298 290 286 283 280 277 274 269 263 255 252 250 248 243 237 237 231 237 242 243 243 247 249 241 245 240 248 252 254 256 259 255
Height
5814 5815 5815 5817 5819 5822 5823 5824 5826 5827 5828 5828 5829 5831 5834 5836 5838 5839 5840 5842 5842 5843 5844 5846 5847 5848 5849 5851 5853 5855 5856 5857 5857 5857 5858 5858 5858 5859 5858 5859 5859 5859 5859
5809 5811 5812 5812 5814 5816 5819 5821 5822 5824 5825 5825 5826 5827 5829 5831 5833 5835 5836 5839 5840 5841 5841 5842 5843 5844 5846 5847 5849 5850 5852 5853 5854 5855 5855 5856 5856 5856 5856 5856 5857 5857 5857
5805 5807 5809 5809 5810 5812 5814 5816 5819 5819 5821 5821 5822 5823 5824 5826 5828 5829 5832 5834 5836 5838 5838 5839 5839 5840 5842 5843 5844 5846 5848 5849 5850 5851 5852 5853 5853 5854 5854 5854 5854 5854 5854
5801 5803 5804 5806 5806 5807 5809 5810 5813 5814 5816 5817 5818 5819 5819 5821 5822 5823 5825 5828 5830 5833 5835 5836 5836 5836 5837 5839 5840 5841 5843 5845 5846 5847 5848 5849 5850 5851 5851 5851 5851 5851 5851
5795 5797 5798 5800 5801 5802 5803 5804 5807 5809 5810 5812 5814 5815 5816 5816 5817 5819 5820 5821 5825 5826 5829 5831 5832 5833 5833 5834 5836 5837 5838 5839 5841 5842 5843 5844 5845 5847 5847 5848 5848 5848 5848
5790 5792 5794 5795 5796 5797 5797 5799 5801 5802 5804 5806 5808 5809 5809 5811 5812 5813 5814 5816 5819 5821 5823 5825 5827 5828 5829 5830 5830 5832 5834 5835 5836 5837 5839 5840 5841 5843 5843 5844 5844 5844 5844
5784 5785 5788 5789 5791 5792 5793 5794 5795 5796 5797 5798 5801 5802 5803 5805 5806 5807 5809 5810 5812 5815 5816 5819 5820 5822 5824 5825 5825 5827 5829 5831 5832 5833 5834 5835 5836 5838 5838 5839 5840 5840 5839
5778 5780 5782 5783 5785 5786 5786 5787 5788 5789 5791 5791 5792 5794 5796 5797 5799 5799 5801 5803 5805 5807 5809 5811 5813 5815 5817 5819 5820 5821 5823 5825 5827 5828 5829 5830 5831 5833 5834 5835 5835 5835 5835
5775 5776 5777 5778 5779 5780 5781 5781 5782 5782 5783 5785 5785 5786 5787 5789 5790 5791 5793 5795 5797 5798 5801 5803 5806 5808 5809 5810 5814 5816 5816 5818 5820 5822 5824 5825 5826 5828 5828 5829 5829 5830 5830
5772 5773 5773 5774 5774 5775 5776 5776 5775 5776 5776 5776 5777 5778 5778 5780 5782 5783 5784 5785 5788 5790 5791 5795 5797 5799 5801 5803 5805 5809 5811 5812 5815 5816 5817 5819 5820 5822 5823 5824 5824 5824 5825
5768 5768 5768 5769 5768 5769 5769 5769 5767 5768 5768 5767 5768 5769 5769 5770 5771 5773 5775 5776 5779 5780 5782 5785 5789 5790 5793 5795 5798 5800 5802 5805 5807 5809 5810 5812 5813 5815 5816 5817 5818 5818 5818
5765 5765 5764 5763 5761 5761 5760 5761 5760 5759 5759 5759 5758 5758 5752 5759 5761 5761 5764 5767 5768 5769 5771 5774 5777 5780 5783 5787 5788 5791 5794 5795 5799 5800 5803 5804 5805 5808 5808 5809 5811 5812 5812
5760 5760 5759 5757 5755 5754 5753 5752 5751 5751 5750 5750 5749 5748 5748 5750 5752 5751 5752 5754 5757 5758 5760 5762 5765 5768 5771 5776 5778 5782 5784 5786 5789 5792 5793 5796 5797 5799 5801 5802 5804 5805 5806
5754 5752 5751 5749 5747 5745 5744 5742 5741 5740 5739 5738 5737 5736 5736 5738 5739 5739 5741 5742 5742 5747 5749 5752 5755 5757 5759 5763 5767 5770 5774 5777 5778 5781 5784 5785 5788 5790 5793 5794 5796 5797 5799
5745 5743 5740 5738 5735 5733 5730 5727 5726 5725 5725 5725 5725 5724 5723 5725 5726 5730 5727 5730 5733 5735 5738 5739 5743 5745 5748 5751 5756 5758 5763 5765 5770 5772 5774 5778 5780 5781 5783 5786 5787 5789 5790
5733 5731 5729 5726 5722 5720 5716 5711 5710 5709 5710 5710 5710 5710 5709 5710 5712 5714 5718 5719 5720 5722 5726 5726 5728 5732 5736 5739 5744 5747 5750 5754 5758 5762 5765 5767 5770 5772 5773 5777 5778 5780 5783
5721 5717 5713 5710 5708 5704 5701 5699 5696 5694 5694 5695 5694 5694 5694 5694 5696 5699 5702 5707 5707 5711 5712 5713 5717 5719 5721 5726 5732 5736 5739 5742 5746 5750 5754 5757 5759 5762 5764 5767 5771 5773 5775
5709 5702 5698 5694 5690 5689 5688 5687 5684 5682 5680 5679 5678 5678 5678 5678 5679 5681 5686 5689 5692 5696 5698 5699 5704 5706 5708 5712 5718 5724 5728 5730 5735 5738 5742 5745 5747 5750 5754 5757 5760 5763 5765
5694 5689 5685 5684 5681 5679 5676 5674 5672 5669 5667 5665 5663 5662 5660 5660 5661 5662 5667 5672 5674 5679 5683 5686 5690 5691 5696 5700 5703 5709 5714 5719 5722 5726 5731 5733 5736 5741 5743 5746 5749 5753 5755
5682 5680 5678 5675 5672 5669 5666 5663 5660 5658 5655 5650 5647 5645 5644 5644 5643 5643 5647 5651 5656 5660 5666 5670 5673 5676 5680 5687 5690 5694 5697 5704 5709 5714 5719 5722 5725 5730 5733 5736 5740 5744 5746
5675 5672 5670 5667 5662 5659 5656 5651 5648 5644 5640 5635 5632 5628 5626 5625 5625 5626 5627 5630 5636 5642 5648 5652 5659 5662 5664 5670 5675 5677 5683 5688 5694 5700 5705 5709 5713 5717 5721 5726 5730 5733 5737
5669 5666 5661 5657 5653 5649 5644 5639 5634 5630 5625 5617 5612 5610 5608 5606 5606 5606 5607 5608 5611 5617 5627 5634 5640 5645 5648 5652 5657 5665 5668 5673 5679 5685 5691 5697 5702 5705 5710 5715 5719 5721 5726
5662 5657 5653 5648 5643 5637 5631 5626 5619 5613 5607 5601 5596 5593 5590 5588 5587 5586 5586 5587 5589 5592 5602 5609 5618 5625 5633 5636 5640 5645 5651 5658 5667 5672 5677 5684 5688 5693 5699 5703 5708 5710 5713
5653 5648 5643 5637 5631 5625 5619 5612 5606 5599 5592 5584 5579 5575 5573 5571 5569 5566 5564 5563 5565 5569 5576 5584 5591 5602 5609 5622 5622 5624 5633 5644 5648 5658 5664 5670 5674 5680 5685 5691 5695 5700 5701
5644 5640 5634 5628 5619 5613 5605 5598 5591 5584 5576 5568 5561 5558 5553 5550 5546 5543 5542 5540 5539 5541 5548 5555 5566 5574 5586 5601 5599 5607 5615 5626 5634 5644 5652 5657 5662 5668 5674 5678 5683 5687 5690
5636 5631 5624 5617 5607 5599 5591 5582 5575 5568 5560 5552 5545 5540 5534 5529 5523 5517 5513 5511 5512 5513 5517 5524 5535 5548 5556 5571 5578 5588 5602 5608 5624 5630 5639 5643 5650 5656 5660 5665 5670 5674 5679